Tracking 30923 objects as of 1-Jul-2025
HD Live streaming from Space Station
objects crossing your sky now

OPS 6026 (DMSP 4A F1)

Track OPS 6026 (DMSP 4A F1) now!
10-day predictions
OPS 6026 (DMSP 4A F1) is classified as:


NORAD ID: 2418
Int'l Code: 1966-082A
Perigee: 671.2 km
Apogee: 836.6 km
Inclination: 98.3 °
Period: 99.8 minutes
Semi major axis: 7124 km
RCS: 0.634 m2 (medium)
Launch date: September 16, 1966
Source: United States (US)
Launch site: AIR FORCE WESTERN TEST RANGE (AFWTR)
Your satellite tracking list
FENGYUN 1C DEB
Track 1 satellite(s)




NASA's NSSDC Master Catalog

Two Line Element Set (TLE):
1 02418U 66082A   25181.43673698  .00000120  00000-0  45624-4 0  9998
2 02418  98.2948 337.4985 0116080  10.4660 349.8908 14.43557457 61530
Source of the keplerian elements: AFSPC